| time (UTC) | temp F | wind direction | speed MPH | gust MPH | rain 1hr in | rain 24hr in | rain mn in | humidity % | barometer mb |
| 20260904060054 | 79 | 334 | 0.0 | 0.0 | 0.00 | 0.02 | 0.00 | 77 | 1013.8 |
| 20260904055607 | 79 | 334 | 0.0 | 0.0 | 0.00 | 0.02 | 0.00 | 76 | 1013.8 |
| 20260904055103 | 79 | 336 | 0.0 | 0.0 | 0.00 | 0.02 | 0.00 | 76 | 1013.8 |
| 20260904054532 | 79 | 335 | 0.0 | 0.0 | 0.00 | 0.02 | 0.00 | 76 | 1013.8 |
| 20260904054038 | 79 | 336 | 0.0 | 0.0 | 0.00 | 0.02 | 0.00 | 76 | 1013.8 |
| 20260904053532 | 79 | 335 | 0.0 | 0.0 | 0.00 | 0.02 | 0.00 | 76 | 1013.8 |
| 20260904053039 | 79 | 334 | 0.0 | 0.0 | 0.00 | 0.02 | 0.00 | 76 | 1013.8 |
| 20260904052550 | 80 | 334 | 0.0 | 0.0 | 0.00 | 0.02 | 0.00 | 76 | 1013.8 |
| 20260904052038 | 80 | 334 | 0.0 | 0.0 | 0.00 | 0.02 | 0.00 | 75 | 1013.8 |
| 20260904051531 | 80 | 333 | 0.0 | 0.0 | 0.00 | 0.02 | 0.00 | 75 | 1013.7 |
| 20260904051102 | 80 | 335 | 0.0 | 0.0 | 0.00 | 0.02 | 0.00 | 75 | 1013.7 |
| 20260904050548 | 80 | 334 | 0.0 | 0.0 | 0.00 | 0.02 | 0.00 | 75 | 1013.8 |
| 20260904050039 | 80 | 333 | 0.0 | 0.0 | 0.00 | 0.02 | 0.00 | 75 | 1013.6 |
| 20260904045550 | 80 | 334 | 0.0 | 0.0 | 0.00 | 0.02 | 0.02 | 75 | 1013.6 |
| 20260904045037 | 80 | 336 | 0.0 | 0.0 | 0.00 | 0.02 | 0.02 | 76 | 1013.7 |
| 20260904044549 | 80 | 333 | 0.0 | 0.0 | 0.00 | 0.02 | 0.02 | 76 | 1013.7 |
| 20260904044037 | 81 | 334 | 0.0 | 0.0 | 0.00 | 0.02 | 0.02 | 76 | 1013.6 |
| 20260904043547 | 81 | 334 | 0.0 | 0.0 | 0.00 | 0.02 | 0.02 | 76 | 1013.7 |
| 20260904043035 | 81 | 334 | 0.0 | 0.0 | 0.00 | 0.02 | 0.02 | 75 | 1013.7 |
| 20260904042546 | 81 | 333 | 0.0 | 0.0 | 0.00 | 0.02 | 0.02 | 75 | 1013.8 |
| 20260904042034 | 81 | 333 | 0.0 | 0.0 | 0.00 | 0.02 | 0.02 | 75 | 1013.7 |
| 20260904041546 | 81 | 333 | 0.0 | 0.0 | 0.00 | 0.02 | 0.02 | 74 | 1013.7 |
| 20260904041033 | 81 | 334 | 0.0 | 0.0 | 0.00 | 0.02 | 0.02 | 74 | 1013.7 |
| 20260904040543 | 82 | 333 | 0.0 | 0.0 | 0.00 | 0.02 | 0.02 | 74 | 1013.7 |
| 20260904040030 | 82 | 333 | 0.0 | 0.0 | 0.00 | 0.02 | 0.02 | 74 | 1013.7 |
| 20260904035541 | 82 | 334 | 0.0 | 0.0 | 0.00 | 0.02 | 0.02 | 74 | 1013.7 |
| 20260904035052 | 82 | 334 | 0.0 | 0.0 | 0.00 | 0.02 | 0.02 | 74 | 1013.7 |
| 20260904034541 | 82 | 333 | 0.0 | 0.0 | 0.00 | 0.02 | 0.02 | 73 | 1013.7 |
| 20260904034029 | 82 | 333 | 0.0 | 0.0 | 0.00 | 0.02 | 0.02 | 73 | 1013.8 |
| 20260904033603 | 82 | 333 | 0.0 | 0.0 | 0.00 | 0.02 | 0.02 | 73 | 1013.8 |
| 20260904033034 | 83 | 333 | 0.0 | 0.0 | 0.00 | 0.02 | 0.02 | 73 | 1013.8 |
| 20260904032531 | 83 | 333 | 0.0 | 0.0 | 0.00 | 0.02 | 0.02 | 74 | 1013.7 |
| 20260904032043 | 83 | 334 | 0.0 | 0.0 | 0.00 | 0.02 | 0.02 | 75 | 1013.7 |
| 20260904031553 | 83 | 336 | 0.0 | 0.0 | 0.00 | 0.02 | 0.02 | 75 | 1013.7 |
| 20260904031042 | 83 | 333 | 0.0 | 0.0 | 0.00 | 0.02 | 0.02 | 76 | 1013.7 |
| 20260904030533 | 83 | 333 | 0.0 | 0.0 | 0.00 | 0.02 | 0.02 | 76 | 1013.6 |
| 20260904030100 | 83 | 333 | 0.0 | 0.0 | 0.00 | 0.02 | 0.02 | 76 | 1013.5 |
| 20260904025532 | 83 | 334 | 0.0 | 0.0 | 0.00 | 0.02 | 0.02 | 76 | 1013.5 |
| 20260904025030 | 83 | 333 | 0.0 | 0.0 | 0.00 | 0.02 | 0.02 | 75 | 1013.4 |
| 20260904024545 | 83 | 334 | 0.0 | 0.0 | 0.00 | 0.02 | 0.02 | 75 | 1013.3 |
| 20260904024053 | 83 | 333 | 0.0 | 0.0 | 0.00 | 0.02 | 0.02 | 75 | 1013.4 |
| 20260904023539 | 83 | 333 | 0.0 | 0.0 | 0.00 | 0.02 | 0.02 | 74 | 1013.2 |
| 20260904023048 | 83 | 333 | 0.0 | 0.0 | 0.00 | 0.02 | 0.02 | 74 | 1013.1 |
| 20260904022536 | 83 | 333 | 0.0 | 0.0 | 0.00 | 0.02 | 0.02 | 73 | 1013.0 |
| 20260904022050 | 83 | 333 | 0.0 | 0.0 | 0.00 | 0.02 | 0.02 | 73 | 1012.9 |
| 20260904021547 | 84 | 333 | 0.0 | 0.0 | 0.00 | 0.02 | 0.02 | 73 | 1012.8 |
| 20260904021033 | 84 | 333 | 0.0 | 0.0 | 0.00 | 0.02 | 0.02 | 72 | 1012.8 |
| 20260904020544 | 84 | 333 | 0.0 | 0.0 | 0.00 | 0.02 | 0.02 | 72 | 1012.7 |
| 20260904020034 | 84 | 333 | 0.0 | 0.0 | 0.00 | 0.02 | 0.02 | 72 | 1012.7 |
| 20260904015541 | 84 | 333 | 0.0 | 0.0 | 0.00 | 0.02 | 0.02 | 71 | 1012.5 |
| 20260904015033 | 84 | 333 | 0.0 | 0.0 | 0.00 | 0.02 | 0.02 | 71 | 1012.5 |
| 20260904014543 | 84 | 333 | 0.0 | 0.0 | 0.00 | 0.02 | 0.02 | 71 | 1012.4 |
| 20260904014032 | 84 | 333 | 0.0 | 0.0 | 0.00 | 0.02 | 0.02 | 70 | 1012.4 |
| 20260904013544 | 84 | 334 | 0.0 | 0.0 | 0.00 | 0.02 | 0.02 | 70 | 1012.4 |
| 20260904013034 | 85 | 333 | 0.0 | 0.0 | 0.00 | 0.02 | 0.02 | 69 | 1012.4 |
| 20260904012544 | 85 | 333 | 0.0 | 0.0 | 0.00 | 0.02 | 0.02 | 69 | 1012.4 |
| 20260904012058 | 85 | 335 | 0.0 | 0.0 | 0.00 | 0.02 | 0.02 | 69 | 1012.3 |
| 20260904011551 | 85 | 333 | 0.0 | 0.0 | 0.00 | 0.02 | 0.02 | 68 | 1012.3 |
| 20260904011106 | 85 | 333 | 0.0 | 0.0 | 0.00 | 0.02 | 0.02 | 68 | 1012.3 |
| 20260904010542 | 85 | 334 | 0.0 | 0.0 | 0.00 | 0.02 | 0.02 | 67 | 1012.2 |
| 20260904010050 | 85 | 333 | 0.0 | 0.0 | 0.00 | 0.02 | 0.02 | 67 | 1012.2 |
| 20260904005539 | 85 | 333 | 0.0 | 0.0 | 0.00 | 0.02 | 0.02 | 66 | 1012.3 |
| 20260904005031 | 86 | 333 | 0.0 | 0.0 | 0.00 | 0.02 | 0.02 | 66 | 1012.3 |
| 20260904004603 | 86 | 333 | 0.0 | 0.0 | 0.00 | 0.02 | 0.02 | 65 | 1012.2 |
| 20260904004028 | 86 | 333 | 0.0 | 0.0 | 0.00 | 0.02 | 0.02 | 65 | 1012.2 |
| 20260904003547 | 86 | 333 | 0.0 | 0.0 | 0.00 | 0.02 | 0.02 | 66 | 1012.1 |
| 20260904003035 | 86 | 333 | 0.0 | 0.0 | 0.00 | 0.02 | 0.02 | 66 | 1012.1 |
| 20260904002546 | 87 | 333 | 0.0 | 0.0 | 0.00 | 0.02 | 0.02 | 65 | 1012.0 |
| 20260904002033 | 87 | 333 | 0.0 | 0.0 | 0.00 | 0.02 | 0.02 | 65 | 1012.0 |
| 20260904001544 | 87 | 332 | 0.0 | 0.0 | 0.00 | 0.02 | 0.02 | 65 | 1012.0 |
| 20260904001031 | 87 | 333 | 0.0 | 0.0 | 0.00 | 0.02 | 0.02 | 66 | 1012.0 |
| 20260904000539 | 87 | 332 | 0.0 | 0.0 | 0.00 | 0.02 | 0.02 | 66 | 1012.0 |
| 20260904000047 | 87 | 333 | 0.0 | 0.0 | 0.00 | 0.02 | 0.02 | 66 | 1012.0 |
| 20260903235540 | 87 | 332 | 0.0 | 0.0 | 0.00 | 0.02 | 0.02 | 66 | 1012.0 |
| 20260903235047 | 88 | 333 | 0.0 | 0.0 | 0.00 | 0.02 | 0.02 | 66 | 1011.9 |
| 20260903234539 | 88 | 332 | 0.0 | 0.0 | 0.00 | 0.02 | 0.02 | 65 | 1011.9 |
| 20260903234045 | 88 | 333 | 0.0 | 0.0 | 0.00 | 0.02 | 0.02 | 65 | 1011.8 |
| 20260903233533 | 88 | 333 | 0.0 | 0.0 | 0.00 | 0.02 | 0.02 | 65 | 1011.8 |
| 20260903233031 | 88 | 333 | 0.0 | 0.0 | 0.00 | 0.02 | 0.02 | 65 | 1011.7 |
| 20260903232546 | 89 | 332 | 0.0 | 0.0 | 0.00 | 0.02 | 0.02 | 64 | 1011.7 |
| 20260903232034 | 89 | 333 | 0.0 | 0.0 | 0.00 | 0.02 | 0.02 | 64 | 1011.6 |
| 20260903231543 | 89 | 333 | 0.0 | 0.0 | 0.00 | 0.02 | 0.02 | 64 | 1011.6 |
| 20260903231033 | 89 | 333 | 0.0 | 0.0 | 0.00 | 0.02 | 0.02 | 64 | 1011.6 |
| 20260903230542 | 89 | 333 | 0.0 | 0.0 | 0.00 | 0.02 | 0.02 | 64 | 1011.6 |
| 20260903230033 | 89 | 333 | 0.0 | 0.0 | 0.00 | 0.02 | 0.02 | 65 | 1011.6 |
| 20260903225544 | 89 | 333 | 0.0 | 0.0 | 0.00 | 0.02 | 0.02 | 65 | 1011.6 |
| 20260903225036 | 89 | 333 | 0.0 | 0.0 | 0.00 | 0.02 | 0.02 | 64 | 1011.6 |
| 20260903224531 | 89 | 333 | 0.0 | 0.0 | 0.00 | 0.02 | 0.02 | 64 | 1011.6 |
| 20260903224102 | 89 | 333 | 0.0 | 0.0 | 0.00 | 0.02 | 0.02 | 64 | 1011.7 |
| 20260903223528 | 89 | 331 | 0.0 | 0.0 | 0.00 | 0.02 | 0.02 | 64 | 1011.6 |
| 20260903223043 | 89 | 333 | 0.0 | 0.0 | 0.00 | 0.02 | 0.02 | 65 | 1011.7 |
| 20260903222549 | 89 | 332 | 0.0 | 0.0 | 0.00 | 0.02 | 0.02 | 65 | 1011.7 |
| 20260903222040 | 89 | 331 | 0.0 | 0.0 | 0.00 | 0.02 | 0.02 | 65 | 1011.7 |
| 20260903221550 | 89 | 331 | 0.0 | 0.0 | 0.00 | 0.02 | 0.02 | 65 | 1011.7 |
| 20260903221047 | 89 | 334 | 0.0 | 0.0 | 0.00 | 0.02 | 0.02 | 65 | 1011.6 |
| 20260903220533 | 89 | 331 | 0.0 | 0.0 | 0.00 | 0.02 | 0.02 | 66 | 1011.7 |
| 20260903220031 | 89 | 333 | 0.0 | 0.0 | 0.00 | 0.02 | 0.02 | 66 | 1011.7 |
| 20260903215539 | 89 | 333 | 0.0 | 0.0 | 0.00 | 0.02 | 0.02 | 66 | 1011.8 |
| 20260903215033 | 89 | 334 | 0.0 | 0.0 | 0.00 | 0.02 | 0.02 | 65 | 1011.9 |
| 20260903214605 | 89 | 333 | 0.0 | 0.0 | 0.00 | 0.02 | 0.02 | 65 | 1011.8 |
| 20260903214035 | 89 | 333 | 0.0 | 0.0 | 0.00 | 0.02 | 0.02 | 65 | 1011.9 |
| 20260903213546 | 89 | 332 | 0.0 | 0.0 | 0.00 | 0.02 | 0.02 | 64 | 1011.9 |
| 20260903213055 | 89 | 332 | 0.0 | 0.0 | 0.00 | 0.02 | 0.02 | 65 | 1011.9 |
| 20260903212543 | 89 | 332 | 0.0 | 0.0 | 0.00 | 0.02 | 0.02 | 64 | 1012.0 |
| 20260903212031 | 89 | 331 | 0.0 | 0.0 | 0.00 | 0.02 | 0.02 | 65 | 1012.0 |
| 20260903211540 | 89 | 336 | 0.0 | 0.0 | 0.00 | 0.02 | 0.02 | 66 | 1012.1 |
| 20260903211049 | 88 | 333 | 0.0 | 0.0 | 0.00 | 0.02 | 0.02 | 66 | 1012.2 |
| 20260903210537 | 88 | 333 | 0.0 | 0.0 | 0.00 | 0.02 | 0.02 | 67 | 1012.1 |
| 20260903210047 | 88 | 333 | 0.0 | 0.0 | 0.00 | 0.02 | 0.02 | 67 | 1012.3 |
| 20260903205536 | 88 | 332 | 0.0 | 0.0 | 0.00 | 0.02 | 0.02 | 68 | 1012.3 |
| 20260903205044 | 88 | 332 | 0.0 | 0.0 | 0.00 | 0.02 | 0.02 | 68 | 1012.4 |
| 20260903204554 | 88 | 333 | 0.0 | 0.0 | 0.00 | 0.02 | 0.02 | 68 | 1012.4 |
| 20260903204043 | 88 | 331 | 0.0 | 0.0 | 0.00 | 0.02 | 0.02 | 68 | 1012.5 |
| 20260903203601 | 88 | 334 | 0.0 | 0.0 | 0.00 | 0.02 | 0.02 | 68 | 1012.5 |
| 20260903203030 | 88 | 331 | 0.0 | 0.0 | 0.00 | 0.02 | 0.02 | 68 | 1012.6 |
| 20260903202540 | 88 | 332 | 0.0 | 0.0 | 0.00 | 0.02 | 0.02 | 68 | 1012.7 |
| 20260903202047 | 88 | 333 | 0.0 | 0.0 | 0.00 | 0.02 | 0.02 | 68 | 1012.7 |
| 20260903201536 | 88 | 332 | 0.0 | 0.0 | 0.00 | 0.02 | 0.02 | 68 | 1012.8 |
| 20260903201043 | 88 | 336 | 0.0 | 0.0 | 0.00 | 0.02 | 0.02 | 69 | 1012.7 |
| 20260903200536 | 88 | 333 | 0.0 | 0.0 | 0.00 | 0.02 | 0.02 | 68 | 1012.8 |
| 20260903200030 | 87 | 333 | 0.0 | 0.0 | 0.00 | 0.02 | 0.02 | 69 | 1012.8 |
| 20260903195603 | 87 | 331 | 0.0 | 0.0 | 0.00 | 0.02 | 0.02 | 69 | 1012.8 |
| 20260903195037 | 87 | 333 | 0.0 | 0.0 | 0.00 | 0.02 | 0.02 | 70 | 1012.8 |
| 20260903194532 | 87 | 333 | 0.0 | 0.0 | 0.00 | 0.02 | 0.02 | 71 | 1012.9 |
| 20260903194040 | 86 | 332 | 0.0 | 0.0 | 0.00 | 0.02 | 0.02 | 71 | 1012.9 |
| 20260903193529 | 86 | 333 | 0.0 | 0.0 | 0.00 | 0.02 | 0.02 | 71 | 1013.0 |
| 20260903193041 | 86 | 333 | 0.0 | 0.0 | 0.00 | 0.02 | 0.02 | 71 | 1013.0 |
| 20260903192551 | 87 | 332 | 0.0 | 0.0 | 0.00 | 0.02 | 0.02 | 71 | 1013.2 |
| 20260903192038 | 87 | 333 | 0.0 | 0.0 | 0.00 | 0.02 | 0.02 | 70 | 1013.2 |
| 20260903191545 | 87 | 332 | 0.0 | 0.0 | 0.00 | 0.02 | 0.02 | 69 | 1013.4 |
| 20260903191033 | 87 | 336 | 0.0 | 0.0 | 0.00 | 0.02 | 0.02 | 70 | 1013.4 |
| 20260903190606 | 87 | 332 | 0.0 | 0.0 | 0.00 | 0.02 | 0.02 | 71 | 1013.5 |
| 20260903190055 | 86 | 332 | 0.0 | 0.0 | 0.00 | 0.02 | 0.02 | 72 | 1013.6 |
| 20260903185606 | 86 | 333 | 0.0 | 0.0 | 0.00 | 0.02 | 0.02 | 72 | 1013.6 |
| 20260903185036 | 86 | 333 | 0.0 | 0.0 | 0.00 | 0.02 | 0.02 | 72 | 1013.7 |
| 20260903184605 | 86 | 332 | 0.0 | 0.0 | 0.00 | 0.02 | 0.02 | 74 | 1013.8 |
| 20260903184045 | 85 | 332 | 0.0 | 0.0 | 0.00 | 0.02 | 0.02 | 75 | 1013.9 |
| 20260903183533 | 84 | 335 | 0.0 | 0.0 | 0.00 | 0.02 | 0.02 | 78 | 1013.9 |
| 20260903183044 | 83 | 333 | 0.0 | 0.0 | 0.00 | 0.02 | 0.02 | 78 | 1013.9 |
| 20260903182530 | 83 | 333 | 0.0 | 0.0 | 0.00 | 0.02 | 0.02 | 78 | 1014.0 |
| 20260903182104 | 84 | 333 | 0.0 | 0.0 | 0.00 | 0.02 | 0.02 | 78 | 1014.0 |
| 20260903181530 | 84 | 333 | 0.0 | 0.0 | 0.00 | 0.02 | 0.02 | 78 | 1014.1 |
| 20260903181044 | 84 | 335 | 0.0 | 0.0 | 0.00 | 0.02 | 0.02 | 77 | 1014.1 |
| 20260903180538 | 84 | 333 | 0.0 | 0.0 | 0.00 | 0.02 | 0.02 | 77 | 1014.2 |
| 20260903180032 | 84 | 334 | 0.0 | 0.0 | 0.00 | 0.02 | 0.02 | 77 | 1014.2 |
| 20260903175540 | 85 | 333 | 0.0 | 0.0 | 0.00 | 0.02 | 0.02 | 77 | 1014.3 |
| 20260903175027 | 85 | 335 | 0.0 | 0.0 | 0.00 | 0.02 | 0.02 | 78 | 1014.3 |
| 20260903174541 | 84 | 333 | 0.0 | 0.0 | 0.00 | 0.02 | 0.02 | 80 | 1014.3 |
| 20260903174033 | 83 | 333 | 0.0 | 0.0 | 0.00 | 0.02 | 0.02 | 81 | 1014.4 |
| 20260903173542 | 82 | 333 | 0.0 | 0.0 | 0.00 | 0.02 | 0.02 | 82 | 1014.4 |
| 20260903173029 | 82 | 333 | 0.0 | 0.0 | 0.00 | 0.02 | 0.02 | 82 | 1014.5 |
| 20260903172602 | 82 | 333 | 0.0 | 0.0 | 0.00 | 0.02 | 0.02 | 83 | 1014.5 |
| 20260903172038 | 81 | 333 | 0.0 | 0.0 | 0.00 | 0.02 | 0.02 | 83 | 1014.5 |
| 20260903171545 | 81 | 333 | 0.0 | 0.0 | 0.00 | 0.02 | 0.02 | 84 | 1014.5 |
| 20260903171037 | 80 | 334 | 0.0 | 0.0 | 0.00 | 0.02 | 0.02 | 84 | 1014.5 |
| 20260903170545 | 80 | 331 | 0.0 | 0.0 | 0.00 | 0.02 | 0.02 | 85 | 1014.6 |
| 20260903170033 | 80 | 333 | 0.0 | 0.0 | 0.00 | 0.02 | 0.02 | 85 | 1014.7 |
| 20260903165548 | 80 | 333 | 0.0 | 0.0 | 0.00 | 0.02 | 0.02 | 85 | 1014.7 |
| 20260903165043 | 80 | 333 | 0.0 | 0.0 | 0.00 | 0.02 | 0.02 | 85 | 1014.6 |
| 20260903164531 | 79 | 334 | 0.0 | 0.0 | 0.00 | 0.02 | 0.02 | 85 | 1014.7 |
| 20260903164037 | 79 | 333 | 0.0 | 0.0 | 0.00 | 0.02 | 0.02 | 84 | 1014.6 |
| 20260903163549 | 79 | 333 | 0.0 | 0.0 | 0.00 | 0.02 | 0.02 | 84 | 1014.6 |
| 20260903163043 | 80 | 333 | 0.0 | 0.0 | 0.00 | 0.02 | 0.02 | 84 | 1014.6 |
| 20260903162530 | 80 | 333 | 0.0 | 0.0 | 0.00 | 0.02 | 0.02 | 84 | 1014.6 |
| 20260903162058 | 80 | 332 | 0.0 | 0.0 | 0.00 | 0.02 | 0.02 | 84 | 1014.7 |
| 20260903161544 | 81 | 332 | 0.0 | 0.0 | 0.00 | 0.02 | 0.02 | 84 | 1014.6 |
| 20260903161037 | 81 | 333 | 0.0 | 0.0 | 0.00 | 0.02 | 0.02 | 83 | 1014.6 |
| 20260903160532 | 81 | 333 | 0.0 | 0.0 | 0.00 | 0.02 | 0.02 | 83 | 1014.5 |
| 20260903160043 | 82 | 334 | 0.0 | 0.0 | 0.00 | 0.02 | 0.02 | 83 | 1014.5 |
| 20260903155557 | 83 | 333 | 0.0 | 0.0 | 0.00 | 0.02 | 0.02 | 83 | 1014.4 |
| 20260903155043 | 83 | 333 | 0.0 | 0.0 | 0.00 | 0.02 | 0.02 | 83 | 1014.4 |
| 20260903154532 | 82 | 333 | 0.0 | 0.0 | 0.00 | 0.02 | 0.02 | 84 | 1014.3 |
| 20260903154042 | 82 | 333 | 0.0 | 0.0 | 0.00 | 0.02 | 0.02 | 84 | 1014.3 |
| 20260903153533 | 81 | 334 | 0.0 | 0.0 | 0.00 | 0.02 | 0.02 | 84 | 1014.3 |
| 20260903153044 | 81 | 333 | 0.0 | 0.0 | 0.00 | 0.02 | 0.02 | 85 | 1014.3 |
| 20260903152532 | 80 | 336 | 0.0 | 0.0 | 0.00 | 0.02 | 0.02 | 85 | 1014.3 |
| 20260903152043 | 80 | 333 | 0.0 | 0.0 | 0.00 | 0.02 | 0.02 | 85 | 1014.4 |
| 20260903151531 | 80 | 334 | 0.0 | 0.0 | 0.00 | 0.02 | 0.02 | 85 | 1014.3 |
| 20260903151105 | 80 | 333 | 0.0 | 0.0 | 0.00 | 0.02 | 0.02 | 85 | 1014.3 |
| 20260903150531 | 80 | 333 | 0.0 | 0.0 | 0.00 | 0.02 | 0.02 | 85 | 1014.3 |
| 20260903150039 | 80 | 332 | 0.0 | 0.0 | 0.00 | 0.02 | 0.02 | 85 | 1014.3 |
| 20260903145549 | 80 | 334 | 0.0 | 0.0 | 0.00 | 0.02 | 0.02 | 85 | 1014.3 |
| 20260903145035 | 80 | 333 | 0.0 | 0.0 | 0.00 | 0.02 | 0.02 | 85 | 1014.2 |
| 20260903144610 | 80 | 336 | 0.0 | 0.0 | 0.00 | 0.02 | 0.02 | 85 | 1014.2 |
| 20260903144103 | 79 | 333 | 0.0 | 0.0 | 0.00 | 0.02 | 0.02 | 85 | 1014.3 |
| 20260903143535 | 79 | 334 | 0.0 | 0.0 | 0.00 | 0.02 | 0.02 | 85 | 1014.3 |
| 20260903143048 | 78 | 333 | 0.0 | 0.0 | 0.00 | 0.02 | 0.02 | 85 | 1014.4 |
| 20260903142535 | 78 | 335 | 0.0 | 0.0 | 0.00 | 0.02 | 0.02 | 85 | 1014.4 |
| 20260903142047 | 78 | 334 | 0.0 | 0.0 | 0.00 | 0.02 | 0.02 | 85 | 1014.5 |
| 20260903141535 | 77 | 333 | 0.0 | 0.0 | 0.00 | 0.02 | 0.02 | 85 | 1014.5 |
| 20260903141107 | 77 | 333 | 0.0 | 0.0 | 0.00 | 0.02 | 0.02 | 85 | 1014.5 |
| 20260903140533 | 77 | 335 | 0.0 | 0.0 | 0.00 | 0.02 | 0.02 | 85 | 1014.5 |
| 20260903140048 | 77 | 333 | 0.0 | 0.0 | 0.00 | 0.02 | 0.02 | 85 | 1014.5 |
| 20260903135540 | 77 | 334 | 0.0 | 0.0 | 0.00 | 0.02 | 0.02 | 85 | 1014.6 |
| 20260903135030 | 77 | 333 | 0.0 | 0.0 | 0.00 | 0.02 | 0.02 | 85 | 1014.6 |
| 20260903134605 | 77 | 333 | 0.0 | 0.0 | 0.00 | 0.02 | 0.02 | 85 | 1014.6 |
| 20260903134030 | 77 | 333 | 0.0 | 0.0 | 0.00 | 0.02 | 0.02 | 85 | 1014.5 |
| 20260903133531 | 77 | 333 | 0.0 | 0.0 | 0.00 | 0.02 | 0.02 | 85 | 1014.4 |
| 20260903133039 | 76 | 333 | 0.0 | 0.0 | 0.00 | 0.02 | 0.02 | 85 | 1014.5 |
| 20260903132531 | 76 | 333 | 0.0 | 0.0 | 0.00 | 0.02 | 0.02 | 85 | 1014.4 |
| 20260903132041 | 76 | 333 | 0.0 | 0.0 | 0.00 | 0.02 | 0.02 | 85 | 1014.3 |
| 20260903131536 | 76 | 334 | 0.0 | 0.0 | 0.00 | 0.02 | 0.02 | 85 | 1014.3 |
| 20260903131042 | 76 | 333 | 0.0 | 0.0 | 0.00 | 0.02 | 0.02 | 85 | 1014.3 |
| 20260903130533 | 76 | 335 | 0.0 | 0.0 | 0.00 | 0.02 | 0.02 | 85 | 1014.3 |
| 20260903130031 | 76 | 333 | 0.0 | 0.0 | 0.00 | 0.02 | 0.02 | 85 | 1014.2 |
| 20260903125539 | 76 | 333 | 0.0 | 0.0 | 0.00 | 0.02 | 0.02 | 85 | 1014.2 |
| 20260903125027 | 76 | 333 | 0.0 | 0.0 | 0.00 | 0.02 | 0.02 | 85 | 1014.2 |
| 20260903124538 | 76 | 334 | 0.0 | 0.0 | 0.00 | 0.02 | 0.02 | 85 | 1014.1 |
| 20260903124046 | 76 | 333 | 0.0 | 0.0 | 0.00 | 0.02 | 0.02 | 85 | 1014.1 |
| 20260903123558 | 76 | 332 | 0.0 | 0.0 | 0.00 | 0.02 | 0.02 | 85 | 1014.1 |
| 20260903123030 | 76 | 333 | 0.0 | 0.0 | 0.00 | 0.02 | 0.02 | 85 | 1014.1 |
| 20260903122543 | 76 | 333 | 0.0 | 0.0 | 0.00 | 0.02 | 0.02 | 85 | 1014.0 |
| 20260903122037 | 76 | 333 | 0.0 | 0.0 | 0.00 | 0.02 | 0.02 | 85 | 1014.0 |
| 20260903121529 | 76 | 333 | 0.0 | 0.0 | 0.00 | 0.02 | 0.02 | 85 | 1013.9 |
| 20260903121038 | 76 | 333 | 0.0 | 0.0 | 0.00 | 0.02 | 0.02 | 85 | 1013.8 |
| 20260903120549 | 76 | 333 | 0.0 | 0.0 | 0.00 | 0.02 | 0.02 | 85 | 1013.9 |
| 20260903120043 | 76 | 333 | 0.0 | 0.0 | 0.00 | 0.02 | 0.02 | 85 | 1013.8 |
| 20260903115536 | 76 | 333 | 0.0 | 0.0 | 0.00 | 0.02 | 0.02 | 85 | 1013.8 |
| 20260903115048 | 76 | 333 | 0.0 | 0.0 | 0.01 | 0.02 | 0.02 | 85 | 1013.7 |
| 20260903114534 | 76 | 333 | 0.0 | 0.0 | 0.01 | 0.02 | 0.02 | 85 | 1013.8 |
| 20260903114032 | 76 | 334 | 0.0 | 0.0 | 0.01 | 0.02 | 0.02 | 85 | 1013.8 |
| 20260903113541 | 76 | 334 | 0.0 | 0.0 | 0.01 | 0.02 | 0.02 | 85 | 1013.7 |
| 20260903113031 | 76 | 333 | 0.0 | 0.0 | 0.01 | 0.02 | 0.02 | 85 | 1013.8 |
| 20260903112606 | 76 | 333 | 0.0 | 0.0 | 0.01 | 0.02 | 0.02 | 85 | 1013.7 |
| 20260903112051 | 76 | 334 | 0.0 | 0.0 | 0.01 | 0.02 | 0.02 | 85 | 1013.7 |
| 20260903111605 | 76 | 334 | 0.0 | 0.0 | 0.01 | 0.02 | 0.02 | 85 | 1013.6 |
| 20260903111035 | 76 | 333 | 0.0 | 0.0 | 0.02 | 0.02 | 0.02 | 85 | 1013.7 |
| 20260903110545 | 76 | 333 | 0.0 | 0.0 | 0.02 | 0.02 | 0.02 | 85 | 1013.6 |
| 20260903110056 | 76 | 333 | 0.0 | 0.0 | 0.02 | 0.02 | 0.02 | 85 | 1013.5 |
| 20260903105544 | 76 | 334 | 0.0 | 0.0 | 0.02 | 0.02 | 0.02 | 85 | 1013.4 |
| 20260903105031 | 76 | 333 | 0.0 | 0.0 | 0.01 | 0.01 | 0.01 | 85 | 1013.3 |
| 20260903104559 | 76 | 333 | 0.0 | 0.0 | 0.01 | 0.01 | 0.01 | 85 | 1013.3 |
| 20260903104049 | 76 | 334 | 0.0 | 0.0 | 0.01 | 0.01 | 0.01 | 85 | 1013.3 |
| 20260903103541 | 76 | 334 | 0.0 | 0.0 | 0.01 | 0.01 | 0.01 | 85 | 1013.2 |
| 20260903103027 | 76 | 334 | 0.0 | 0.0 | 0.01 | 0.01 | 0.01 | 85 | 1013.2 |
| 20260903102537 | 76 | 335 | 0.0 | 0.0 | 0.01 | 0.01 | 0.01 | 85 | 1013.2 |
| 20260903102028 | 76 | 334 | 0.0 | 0.0 | 0.01 | 0.01 | 0.01 | 85 | 1013.2 |
| 20260903101539 | 76 | 333 | 0.0 | 0.0 | 0.01 | 0.01 | 0.01 | 85 | 1013.2 |
| 20260903101048 | 76 | 333 | 0.0 | 0.0 | 0.00 | 0.00 | 0.00 | 85 | 1013.1 |
| 20260903100540 | 76 | 333 | 0.0 | 0.0 | 0.00 | 0.00 | 0.00 | 85 | 1013.2 |
| 20260903100031 | 76 | 333 | 0.0 | 0.0 | 0.00 | 0.00 | 0.00 | 85 | 1013.2 |
| 20260903095540 | 76 | 334 | 0.0 | 0.0 | 0.00 | 0.00 | 0.00 | 85 | 1013.2 |
| 20260903095030 | 76 | 333 | 0.0 | 0.0 | 0.00 | 0.00 | 0.00 | 85 | 1013.1 |
| 20260903094544 | 77 | 333 | 0.0 | 0.0 | 0.00 | 0.00 | 0.00 | 85 | 1013.1 |
| 20260903094032 | 77 | 333 | 0.0 | 0.0 | 0.00 | 0.00 | 0.00 | 84 | 1013.1 |
| 20260903093538 | 77 | 333 | 0.0 | 0.0 | 0.00 | 0.00 | 0.00 | 84 | 1013.2 |
| 20260903093054 | 78 | 332 | 0.0 | 0.0 | 0.00 | 0.00 | 0.00 | 84 | 1013.3 |
| 20260903092545 | 78 | 333 | 0.0 | 0.0 | 0.00 | 0.00 | 0.00 | 83 | 1013.3 |
| 20260903092038 | 78 | 333 | 0.0 | 0.0 | 0.00 | 0.00 | 0.00 | 83 | 1013.3 |
| 20260903091532 | 78 | 333 | 0.0 | 0.0 | 0.00 | 0.00 | 0.00 | 83 | 1013.3 |
| 20260903091044 | 78 | 333 | 0.0 | 0.0 | 0.00 | 0.00 | 0.00 | 83 | 1013.4 |
| 20260903090532 | 78 | 333 | 0.0 | 0.0 | 0.00 | 0.00 | 0.00 | 83 | 1013.4 |
| 20260903090040 | 78 | 333 | 0.0 | 0.0 | 0.00 | 0.00 | 0.00 | 83 | 1013.3 |
| 20260903085548 | 78 | 333 | 0.0 | 0.0 | 0.00 | 0.00 | 0.00 | 83 | 1013.4 |
| 20260903085055 | 78 | 334 | 0.0 | 0.0 | 0.00 | 0.00 | 0.00 | 83 | 1013.3 |
| 20260903084529 | 78 | 333 | 0.0 | 0.0 | 0.00 | 0.00 | 0.00 | 83 | 1013.3 |
| 20260903084040 | 78 | 333 | 0.0 | 0.0 | 0.00 | 0.00 | 0.00 | 82 | 1013.2 |
| 20260903083550 | 78 | 333 | 0.0 | 0.0 | 0.00 | 0.00 | 0.00 | 82 | 1013.3 |
| 20260903083038 | 78 | 333 | 0.0 | 0.0 | 0.00 | 0.00 | 0.00 | 82 | 1013.2 |
| 20260903082546 | 78 | 333 | 0.0 | 0.0 | 0.00 | 0.00 | 0.00 | 82 | 1013.2 |
| 20260903082038 | 79 | 333 | 0.0 | 0.0 | 0.00 | 0.00 | 0.00 | 82 | 1013.3 |
| 20260903081547 | 79 | 333 | 0.0 | 0.0 | 0.00 | 0.00 | 0.00 | 82 | 1013.2 |
| 20260903081101 | 79 | 334 | 0.0 | 0.0 | 0.00 | 0.00 | 0.00 | 81 | 1013.2 |
| 20260903080554 | 79 | 333 | 0.0 | 0.0 | 0.00 | 0.00 | 0.00 | 81 | 1013.2 |
| 20260903080043 | 79 | 333 | 0.0 | 0.0 | 0.00 | 0.00 | 0.00 | 81 | 1013.1 |
| 20260903075550 | 79 | 333 | 0.0 | 0.0 | 0.00 | 0.00 | 0.00 | 81 | 1013.2 |
| 20260903075103 | 79 | 333 | 0.0 | 0.0 | 0.00 | 0.00 | 0.00 | 81 | 1013.1 |
| 20260903074530 | 79 | 333 | 0.0 | 0.0 | 0.00 | 0.00 | 0.00 | 80 | 1013.1 |
| 20260903074105 | 79 | 333 | 0.0 | 0.0 | 0.00 | 0.00 | 0.00 | 80 | 1013.2 |
| 20260903073531 | 79 | 333 | 0.0 | 0.0 | 0.00 | 0.00 | 0.00 | 80 | 1013.2 |
| 20260903073103 | 79 | 333 | 0.0 | 0.0 | 0.00 | 0.00 | 0.00 | 79 | 1013.2 |
| 20260903072529 | 80 | 333 | 0.0 | 0.0 | 0.00 | 0.00 | 0.00 | 79 | 1013.4 |
| 20260903072045 | 80 | 331 | 0.0 | 0.0 | 0.00 | 0.00 | 0.00 | 78 | 1013.4 |
| 20260903071535 | 80 | 333 | 0.0 | 0.0 | 0.00 | 0.00 | 0.00 | 78 | 1013.3 |
| 20260903071042 | 80 | 336 | 0.0 | 0.0 | 0.00 | 0.00 | 0.00 | 78 | 1013.3 |
| 20260903070549 | 80 | 333 | 0.0 | 0.0 | 0.00 | 0.00 | 0.00 | 78 | 1013.3 |
| 20260903070039 | 80 | 332 | 0.0 | 0.0 | 0.00 | 0.00 | 0.00 | 78 | 1013.3 |
| 20260903065609 | 80 | 332 | 0.0 | 0.0 | 0.00 | 0.00 | 0.00 | 78 | 1013.4 |
| 20260903065102 | 80 | 333 | 0.0 | 0.0 | 0.00 | 0.00 | 0.00 | 78 | 1013.4 |
| 20260903064532 | 80 | 334 | 0.0 | 0.0 | 0.00 | 0.00 | 0.00 | 78 | 1013.4 |
| 20260903064102 | 80 | 333 | 0.0 | 0.0 | 0.00 | 0.00 | 0.00 | 77 | 1013.4 |
| 20260903063531 | 80 | 333 | 0.0 | 0.0 | 0.00 | 0.00 | 0.00 | 77 | 1013.4 |
| 20260903063058 | 80 | 333 | 0.0 | 0.0 | 0.00 | 0.00 | 0.00 | 77 | 1013.5 |
| 20260903062548 | 80 | 332 | 0.0 | 0.0 | 0.00 | 0.00 | 0.00 | 77 | 1013.5 |
| 20260903062039 | 80 | 332 | 0.0 | 0.0 | 0.00 | 0.00 | 0.00 | 77 | 1013.6 |
| 20260903061536 | 80 | 332 | 0.0 | 0.0 | 0.00 | 0.00 | 0.00 | 77 | 1013.6 |
| 20260903061106 | 80 | 333 | 0.0 | 0.0 | 0.00 | 0.00 | 0.00 | 77 | 1013.7 |
| 20260903060537 | 80 | 333 | 0.0 | 0.0 | 0.00 | 0.00 | 0.00 | 77 | 1013.7 |